KC0AFB Weather Reports


Display with metric or nautical units.
time (UTC)temp
F
wind
direction
speed
MPH
gust
MPH
rain 1hr
in
rain 24hr
in
rain mn
in
humidity
%
barometer
mb
20260906150707 76 44 2.0 2.0 0.00 0.00 0.00 85 1014.1
20260906150202 75 33 2.0 2.0 0.00 0.00 0.00 85 1014.8
20260906145701 75 77 2.0 2.0 0.00 0.00 0.00 86 1014.6
20260906145200 75 56 1.0 2.0 0.00 0.00 0.00 87 1014.6
20260906144700 74 13 3.0 3.0 0.00 0.00 0.00 87 1014.6
20260906144155 73 306 2.0 2.0 0.00 0.00 0.00 88 1014.8
20260906143649 73 31 3.0 3.0 0.00 0.00 0.00 89 1014.8
20260906143147 73 296 4.0 5.0 0.00 0.00 0.00 89 1015.1
20260906142646 72 56 1.0 1.0 0.00 0.00 0.00 90 1014.9
20260906142141 72 100 0.0 0.0 0.00 0.00 0.00 90 1015.0
20260906141640 72 45 1.0 1.0 0.00 0.00 0.00 90 1015.2
20260906141135 72 218 2.0 2.0 0.00 0.00 0.00 90 1015.5
20260906140634 72 53 1.0 1.0 0.00 0.00 0.00 89 1015.0
20260906140129 72 222 3.0 3.0 0.00 0.00 0.00 89 1015.4
20260906135626 73 120 1.0 1.0 0.00 0.00 0.00 88 1014.8
20260906135122 73 251 4.0 5.0 0.00 0.00 0.00 88 1015.1
20260906134618 72 141 1.0 2.0 0.00 0.00 0.00 89 1014.9
20260906134113 71 68 2.0 2.0 0.00 0.00 0.00 91 1014.5
20260906133609 70 59 3.0 3.0 0.00 0.00 0.00 92 1014.3
20260906133103 69 48 2.0 2.0 0.00 0.00 0.00 92 1014.4
20260906132558 69 279 2.0 2.0 0.00 0.00 0.00 92 1014.6
20260906132054 69 124 1.0 1.0 0.00 0.00 0.00 92 1014.6
20260906131549 69 79 5.0 6.0 0.00 0.00 0.00 92 1014.5
20260906131044 69 74 6.0 7.0 0.00 0.00 0.00 92 1014.1
20260906130544 69 70 8.0 9.0 0.00 0.00 0.00 92 1014.1
20260906130039 69 81 5.0 8.0 0.00 0.00 0.00 92 1014.4
20260906125536 69 79 3.0 3.0 0.00 0.00 0.00 92 1014.6
20260906125031 68 58 3.0 3.0 0.00 0.00 0.00 92 1014.5
20260906124526 68 222 3.0 3.0 0.00 0.00 0.00 92 1015.2
20260906124021 68 77 2.0 3.0 0.00 0.00 0.00 92 1014.5
20260906123520 69 108 2.0 2.0 0.00 0.00 0.00 92 1014.9
20260906123015 69 45 1.0 1.0 0.00 0.00 0.00 92 1014.6
20260906122509 69 10 3.0 3.0 0.00 0.00 0.00 91 1014.9
20260906122006 69 194 1.0 1.0 0.00 0.00 0.00 91 1014.9
20260906121502 69 98 4.0 6.0 0.00 0.00 0.00 91 1014.8
20260906120958 69 123 7.0 8.0 0.00 0.00 0.00 91 1014.6
20260906120453 69 114 5.0 6.0 0.00 0.00 0.00 91 1014.6
20260906115949 69 105 4.0 5.0 0.00 0.00 0.00 91 1015.0
20260906115444 69 92 4.0 5.0 0.00 0.00 0.00 91 1014.9
20260906114944 69 105 3.0 3.0 0.00 0.00 0.00 91 1014.5
20260906114439 69 95 5.0 6.0 0.00 0.00 0.00 91 1014.8
20260906113935 69 117 5.0 6.0 0.00 0.00 0.00 91 1014.5
20260906113433 69 121 5.0 6.0 0.00 0.00 0.00 91 1014.4
20260906112929 68 88 7.0 8.0 0.00 0.00 0.00 92 1014.4
20260906112424 68 138 5.0 8.0 0.00 0.00 0.00 92 1014.5
20260906111920 68 110 5.0 7.0 0.00 0.00 0.00 92 1014.5
20260906111420 68 89 5.0 6.0 0.00 0.00 0.00 92 1014.5
20260906110914 68 114 5.0 6.0 0.00 0.00 0.00 92 1014.8
20260906110410 68 111 6.0 7.0 0.00 0.00 0.00 92 1014.5
20260906105909 68 115 5.0 6.0 0.00 0.00 0.00 92 1014.6
20260906105405 68 92 5.0 6.0 0.00 0.00 0.00 92 1014.5
20260906104901 68 114 5.0 6.0 0.00 0.00 0.00 92 1014.6
20260906104359 68 119 5.0 7.0 0.00 0.00 0.00 92 1014.6
20260906103858 68 113 5.0 7.0 0.00 0.00 0.00 92 1014.9
20260906103356 68 136 6.0 7.0 0.00 0.00 0.00 92 1014.8
20260906102852 68 125 7.0 9.0 0.00 0.00 0.00 92 1014.6
20260906102351 68 95 7.0 8.0 0.00 0.00 0.00 92 1014.6
20260906101846 68 108 8.0 9.0 0.00 0.00 0.00 92 1014.5
20260906101342 68 103 7.0 8.0 0.00 0.00 0.00 92 1014.6
20260906100837 68 90 7.0 8.0 0.00 0.00 0.00 92 1014.5
20260906100336 68 85 6.0 7.0 0.00 0.00 0.00 92 1014.9
20260906095831 68 122 7.0 8.0 0.00 0.00 0.00 92 1014.8
20260906095327 68 134 7.0 8.0 0.00 0.00 0.00 92 1014.9
20260906094826 68 90 8.0 9.0 0.00 0.00 0.00 92 1014.9
20260906094321 68 134 5.0 6.0 0.00 0.00 0.00 92 1014.6
20260906093817 68 112 8.0 9.0 0.00 0.00 0.00 92 1014.8
20260906093313 68 102 7.0 9.0 0.00 0.00 0.00 92 1014.8
20260906092808 69 91 7.0 8.0 0.00 0.00 0.00 92 1014.5
20260906092305 69 123 8.0 8.0 0.00 0.00 0.00 91 1014.6
20260906091758 69 127 6.0 6.0 0.00 0.00 0.00 91 1014.6
20260906091254 69 137 8.0 10.0 0.00 0.00 0.00 91 1014.6
20260906090750 69 114 6.0 8.0 0.00 0.00 0.00 91 1014.6
20260906090248 69 146 6.0 8.0 0.00 0.00 0.00 91 1014.6
20260906085748 68 137 9.0 11.0 0.00 0.00 0.00 92 1014.6
20260906085242 68 88 5.0 7.0 0.00 0.00 0.00 92 1014.8
20260906084737 68 119 5.0 6.0 0.00 0.00 0.00 92 1014.5
20260906084236 68 113 6.0 7.0 0.00 0.00 0.00 92 1014.8
20260906083732 68 94 7.0 7.0 0.00 0.00 0.00 92 1014.9
20260906083226 68 113 5.0 8.0 0.00 0.00 0.00 92 1014.8
20260906082721 68 87 6.0 8.0 0.00 0.00 0.00 92 1014.6
20260906082211 68 93 6.0 7.0 0.00 0.00 0.00 91 1014.8
20260906081707 68 93 7.0 9.0 0.00 0.00 0.00 91 1015.0
20260906081202 68 90 6.0 8.0 0.00 0.00 0.00 91 1014.5
20260906080659 68 69 9.0 10.0 0.00 0.00 0.00 92 1014.5
20260906080154 68 76 7.0 8.0 0.00 0.00 0.00 92 1014.6
20260906075654 68 83 7.0 9.0 0.00 0.00 0.00 92 1014.6
20260906075143 68 73 5.0 7.0 0.00 0.00 0.00 92 1014.2
20260906074638 68 91 3.0 6.0 0.00 0.00 0.00 91 1014.5
20260906074137 68 45 7.0 10.0 0.00 0.00 0.00 91 1014.5
20260906073632 68 71 8.0 9.0 0.00 0.00 0.00 91 1014.8
20260906073128 69 81 9.0 10.0 0.00 0.00 0.00 91 1014.6
20260906072623 69 77 7.0 9.0 0.00 0.00 0.00 91 1014.5
20260906072119 69 79 5.0 6.0 0.00 0.00 0.00 91 1014.6
20260906071615 69 98 8.0 10.0 0.00 0.00 0.00 91 1014.6
20260906071115 69 66 7.0 8.0 0.00 0.00 0.00 91 1014.5
20260906070611 69 87 9.0 11.0 0.00 0.00 0.00 91 1014.8
20260906070106 69 76 6.0 7.0 0.00 0.00 0.00 90 1014.9
20260906065606 69 88 7.0 9.0 0.00 0.00 0.00 90 1014.8
20260906065101 70 82 9.0 9.0 0.00 0.00 0.00 90 1014.8
20260906064557 70 87 3.0 3.0 0.00 0.00 0.00 90 1014.6
20260906064052 69 97 5.0 7.0 0.00 0.00 0.00 90 1015.1
20260906063547 69 117 7.0 8.0 0.00 0.00 0.00 90 1015.0
20260906063043 69 132 8.0 9.0 0.00 0.00 0.00 90 1015.0
20260906062539 70 94 8.0 10.0 0.00 0.00 0.00 90 1014.6
20260906062032 70 99 7.0 9.0 0.00 0.00 0.00 90 1014.5
20260906061529 70 80 7.0 8.0 0.00 0.00 0.00 90 1014.6
20260906061028 70 96 7.0 9.0 0.00 0.00 0.00 90 1014.6
20260906060525 70 93 6.0 7.0 0.00 0.00 0.00 89 1015.0
20260906060022 70 88 5.0 6.0 0.00 0.00 0.00 89 1014.9
20260906055517 70 54 7.0 8.0 0.00 0.00 0.00 89 1015.0
20260906055013 70 85 4.0 6.0 0.00 0.00 0.00 89 1015.1
20260906054513 71 96 7.0 8.0 0.00 0.00 0.00 89 1014.9
20260906054008 71 99 7.0 8.0 0.00 0.00 0.00 88 1015.1
20260906053504 71 92 5.0 7.0 0.00 0.00 0.00 88 1014.9
20260906053000 71 90 4.0 5.0 0.00 0.00 0.00 88 1014.9
20260906052455 71 88 7.0 10.0 0.00 0.00 0.00 87 1015.0
20260906051952 71 56 8.0 9.0 0.00 0.00 0.00 87 1014.8
20260906051447 71 93 7.0 9.0 0.00 0.00 0.00 87 1014.9
20260906050943 72 98 9.0 10.0 0.00 0.00 0.00 87 1014.5
20260906050442 71 93 8.0 10.0 0.00 0.00 0.00 87 1014.2
20260906045942 71 105 7.0 9.0 0.00 0.00 0.00 87 1014.6
20260906045441 72 76 7.0 8.0 0.00 0.00 0.00 86 1014.6
20260906044937 72 88 5.0 6.0 0.00 0.00 0.00 86 1014.9
20260906044432 72 66 6.0 7.0 0.00 0.00 0.00 85 1014.8
20260906043928 73 89 8.0 10.0 0.00 0.00 0.00 85 1014.8
20260906043423 72 108 10.0 14.0 0.00 0.00 0.00 85 1014.5
20260906042919 72 68 11.0 16.0 0.00 0.00 0.00 85 1014.4
20260906042418 72 72 7.0 10.0 0.00 0.00 0.00 85 1014.8
20260906041913 72 88 7.0 9.0 0.00 0.00 0.00 85 1014.5
20260906041409 73 101 7.0 8.0 0.00 0.00 0.00 84 1014.9
20260906040909 73 83 8.0 11.0 0.00 0.00 0.00 84 1014.9
20260906040404 73 73 6.0 7.0 0.00 0.00 0.00 84 1014.8
20260906035859 73 78 7.0 8.0 0.00 0.00 0.00 84 1015.1
20260906035355 73 78 5.0 6.0 0.00 0.00 0.00 84 1014.4
20260906034849 73 96 9.0 10.0 0.00 0.00 0.00 83 1014.8
20260906034344 73 66 6.0 9.0 0.00 0.00 0.00 83 1014.4
20260906033841 74 134 8.0 11.0 0.00 0.00 0.00 82 1014.4
20260906033339 74 130 7.0 8.0 0.00 0.00 0.00 82 1014.4
20260906032836 74 79 7.0 9.0 0.00 0.00 0.00 82 1014.1
20260906032332 74 80 10.0 11.0 0.00 0.00 0.00 82 1014.1
20260906031827 74 68 7.0 9.0 0.00 0.00 0.00 82 1014.2
20260906031322 74 60 8.0 10.0 0.00 0.00 0.00 83 1014.3
20260906030821 74 92 9.0 13.0 0.00 0.00 0.00 83 1014.1
20260906030317 74 72 7.0 8.0 0.00 0.00 0.00 82 1014.1
20260906025817 74 63 7.0 8.0 0.00 0.00 0.00 82 1014.2
20260906025311 74 72 10.0 11.0 0.00 0.00 0.00 82 1014.2
20260906024810 74 70 7.0 9.0 0.00 0.00 0.00 82 1014.3
20260906024304 74 73 9.0 11.0 0.00 0.00 0.00 82 1014.3
20260906023800 74 87 7.0 9.0 0.00 0.00 0.00 82 1014.0
20260906023254 74 69 9.0 10.0 0.00 0.00 0.00 82 1014.1
20260906022750 75 76 7.0 9.0 0.00 0.00 0.00 82 1014.0
20260906022245 75 63 9.0 13.0 0.00 0.00 0.00 81 1013.8
20260906021742 75 72 6.0 9.0 0.00 0.00 0.00 80 1013.6
20260906021240 76 72 4.0 5.0 0.00 0.00 0.00 79 1013.9
20260906020735 76 91 3.0 5.0 0.00 0.00 0.00 78 1013.6
20260906020235 76 93 5.0 6.0 0.00 0.00 0.00 77 1013.6
20260906015730 76 96 5.0 6.0 0.00 0.00 0.00 76 1013.3
20260906015228 77 108 6.0 7.0 0.00 0.00 0.00 75 1013.7
20260906014723 77 81 6.0 6.0 0.00 0.00 0.00 74 1013.3
20260906014219 77 81 6.0 7.0 0.00 0.00 0.00 74 1013.4
20260906013715 77 102 8.0 9.0 0.00 0.00 0.00 73 1013.2
20260906013215 77 95 8.0 9.0 0.00 0.00 0.00 72 1013.2
20260906012710 77 106 7.0 9.0 0.00 0.00 0.00 72 1013.2
20260906012204 77 103 5.0 6.0 0.00 0.00 0.00 71 1013.0
20260906011659 78 99 7.0 8.0 0.00 0.00 0.00 71 1013.2
20260906011154 78 72 7.0 9.0 0.00 0.00 0.00 70 1013.1
20260906010650 79 86 6.0 7.0 0.00 0.00 0.00 70 1013.1
20260906010146 79 82 4.0 5.0 0.00 0.00 0.00 69 1013.2
20260906005645 80 85 5.0 6.0 0.00 0.00 0.00 68 1012.9
20260906005144 81 105 8.0 9.0 0.00 0.00 0.00 68 1013.2
20260906004644 82 94 6.0 7.0 0.00 0.00 0.00 66 1013.1
20260906004139 82 113 7.0 8.0 0.00 0.00 0.00 66 1013.2
20260906003634 82 80 5.0 6.0 0.00 0.00 0.00 66 1013.2
20260906003130 83 100 4.0 5.0 0.00 0.00 0.00 67 1013.2
20260906002624 83 102 5.0 9.0 0.00 0.00 0.00 68 1013.3
20260906002119 83 153 9.0 14.0 0.00 0.00 0.00 68 1013.5
20260906001614 83 112 8.0 10.0 0.00 0.00 0.00 68 1013.4
20260906001109 83 108 9.0 10.0 0.00 0.00 0.00 68 1013.7
20260906000605 83 88 11.0 14.0 0.00 0.00 0.00 68 1013.7
20260906000100 83 136 10.0 13.0 0.00 0.00 0.00 69 1013.6
20260905235559 83 75 8.0 11.0 0.00 0.00 0.00 70 1013.8
20260905235054 83 109 12.0 14.0 0.00 0.00 0.00 70 1013.7
20260905234550 83 135 7.0 9.0 0.00 0.00 0.00 69 1013.7
20260905234044 83 109 11.0 16.0 0.00 0.00 0.00 69 1013.7
20260905233539 83 128 9.0 11.0 0.00 0.00 0.00 69 1013.6
20260905233039 83 129 13.0 14.0 0.00 0.00 0.00 69 1013.7
20260905232534 85 65 14.0 18.0 0.00 0.00 0.00 67 1013.4
20260905232030 86 109 7.0 9.0 0.00 0.00 0.00 65 1013.3
20260905231525 89 66 12.0 17.0 0.00 0.00 0.00 58 1013.4
20260905231021 90 68 10.0 11.0 0.00 0.00 0.00 52 1013.0
20260905230520 90 108 9.0 10.0 0.00 0.00 0.00 52 1013.1
20260905230019 90 112 12.0 15.0 0.00 0.00 0.00 51 1012.9
20260905225514 90 110 6.0 7.0 0.00 0.00 0.00 52 1012.9
20260905225009 91 136 10.0 15.0 0.00 0.00 0.00 51 1012.9
20260905224504 91 120 7.0 8.0 0.00 0.00 0.00 51 1013.0
20260905224003 91 85 7.0 8.0 0.00 0.00 0.00 51 1012.3
20260905223501 91 95 10.0 13.0 0.00 0.00 0.00 51 1012.4
20260905222956 91 121 8.0 11.0 0.00 0.00 0.00 50 1012.1
20260905222456 91 168 10.0 14.0 0.00 0.00 0.00 50 1011.9
20260905221951 91 100 9.0 10.0 0.00 0.00 0.00 50 1011.9
20260905221448 92 119 11.0 13.0 0.00 0.00 0.00 49 1011.9
20260905220944 92 92 6.0 7.0 0.00 0.00 0.00 49 1011.9
20260905220440 92 121 6.0 7.0 0.00 0.00 0.00 48 1011.8
20260905215938 92 155 7.0 9.0 0.00 0.00 0.00 47 1012.0
20260905215434 93 74 8.0 10.0 0.00 0.00 0.00 47 1012.1
20260905214930 92 134 3.0 3.0 0.00 0.00 0.00 46 1012.5
20260905214425 92 81 10.0 11.0 0.00 0.00 0.00 48 1012.7
20260905213920 93 164 6.0 9.0 0.00 0.00 0.00 44 1012.7
20260905213416 93 154 7.0 8.0 0.00 0.00 0.00 44 1012.6
20260905212912 93 113 5.0 7.0 0.00 0.00 0.00 45 1012.5
20260905212406 93 105 10.0 11.0 0.00 0.00 0.00 44 1012.6
20260905211900 93 124 8.0 9.0 0.00 0.00 0.00 44 1012.6
20260905211356 93 120 5.0 6.0 0.00 0.00 0.00 45 1012.3
20260905210852 92 89 7.0 10.0 0.00 0.00 0.00 45 1012.6
20260905210351 92 92 5.0 6.0 0.00 0.00 0.00 44 1012.4
20260905205850 93 118 9.0 11.0 0.00 0.00 0.00 44 1012.5
20260905205345 93 102 10.0 11.0 0.00 0.00 0.00 45 1012.5
20260905204844 91 87 6.0 8.0 0.00 0.00 0.00 46 1012.4
20260905204341 92 122 7.0 9.0 0.00 0.00 0.00 46 1012.7
20260905203838 91 110 9.0 11.0 0.00 0.00 0.00 45 1012.5
20260905203335 91 132 4.0 5.0 0.00 0.00 0.00 46 1012.6
20260905202825 91 171 9.0 11.0 0.00 0.00 0.00 44 1012.4
20260905202319 92 141 11.0 14.0 0.00 0.00 0.00 45 1012.7
20260905201815 92 149 10.0 11.0 0.00 0.00 0.00 44 1012.7
20260905201311 92 107 6.0 8.0 0.00 0.00 0.00 45 1012.7
20260905200805 91 143 6.0 7.0 0.00 0.00 0.00 45 1013.0
20260905200301 91 155 9.0 9.0 0.00 0.00 0.00 46 1012.9
20260905195759 91 161 9.0 9.0 0.00 0.00 0.00 46 1012.9
20260905195254 90 162 5.0 6.0 0.00 0.00 0.00 45 1012.9
20260905194749 90 102 7.0 8.0 0.00 0.00 0.00 48 1012.7
20260905194248 91 74 6.0 7.0 0.00 0.00 0.00 47 1013.2
20260905193743 92 164 6.0 7.0 0.00 0.00 0.00 48 1013.1
20260905193238 91 145 3.0 5.0 0.00 0.00 0.00 47 1013.2
20260905192733 91 94 7.0 9.0 0.00 0.00 0.00 47 1013.2
20260905192230 90 168 9.0 11.0 0.00 0.00 0.00 47 1013.1
20260905191729 91 137 7.0 8.0 0.00 0.00 0.00 47 1013.2
20260905191227 91 154 5.0 6.0 0.00 0.00 0.00 48 1013.4
20260905190726 90 158 5.0 6.0 0.00 0.00 0.00 47 1013.4
20260905190225 90 69 4.0 5.0 0.00 0.00 0.00 49 1013.5
20260905185724 90 128 10.0 11.0 0.00 0.00 0.00 46 1013.4
20260905185218 90 157 7.0 8.0 0.00 0.00 0.00 47 1013.5
20260905184714 89 149 7.0 8.0 0.00 0.00 0.00 48 1013.8
20260905184212 90 164 8.0 9.0 0.00 0.00 0.00 47 1013.7
20260905183712 89 74 5.0 7.0 0.00 0.00 0.00 50 1013.8
20260905183208 88 95 6.0 8.0 0.00 0.00 0.00 49 1014.1
20260905182706 88 121 6.0 8.0 0.00 0.00 0.00 51 1013.9
20260905182201 87 157 5.0 6.0 0.00 0.00 0.00 51 1014.2
20260905181656 87 72 6.0 8.0 0.00 0.00 0.00 52 1014.1
20260905181155 87 106 9.0 11.0 0.00 0.00 0.00 51 1014.1
20260905180650 88 131 6.0 8.0 0.00 0.00 0.00 51 1014.0
20260905180145 87 101 9.0 10.0 0.00 0.00 0.00 49 1014.2
20260905175644 87 162 6.0 8.0 0.00 0.00 0.00 51 1014.3
20260905175140 87 120 5.0 8.0 0.00 0.00 0.00 53 1014.1
20260905174636 87 138 6.0 7.0 0.00 0.00 0.00 52 1014.2
20260905174131 86 119 6.0 7.0 0.00 0.00 0.00 53 1014.4
20260905173626 86 155 9.0 10.0 0.00 0.00 0.00 53 1014.6
20260905173122 86 142 7.0 9.0 0.00 0.00 0.00 53 1014.8
20260905172615 86 164 4.0 5.0 0.00 0.00 0.00 55 1014.4
20260905172110 85 129 7.0 8.0 0.00 0.00 0.00 54 1014.3
20260905171607 85 150 5.0 7.0 0.00 0.00 0.00 56 1014.1
20260905171102 84 85 6.0 8.0 0.00 0.00 0.00 55 1014.4
20260905170559 85 83 5.0 6.0 0.00 0.00 0.00 55 1014.1
20260905170054 84 155 4.0 5.0 0.00 0.00 0.00 56 1014.4
20260905165548 84 149 7.0 9.0 0.00 0.00 0.00 56 1014.3
20260905165038 84 141 6.0 8.0 0.00 0.00 0.00 57 1014.2
20260905164538 83 166 8.0 9.0 0.00 0.00 0.00 57 1014.2
20260905164032 84 156 7.0 9.0 0.00 0.00 0.00 56 1014.3
20260905163529 84 121 10.0 13.0 0.00 0.00 0.00 56 1014.4
20260905163025 83 158 7.0 7.0 0.00 0.00 0.00 56 1014.2
20260905162520 84 155 9.0 11.0 0.00 0.00 0.00 57 1014.3
20260905162014 83 119 7.0 9.0 0.00 0.00 0.00 57 1014.3
20260905161509 83 146 10.0 11.0 0.00 0.00 0.00 56 1014.3
20260905161006 82 134 11.0 14.0 0.00 0.00 0.00 58 1014.3
20260905160500 83 115 5.0 6.0 0.00 0.00 0.00 60 1014.4
20260905155959 83 122 7.0 8.0 0.00 0.00 0.00 57 1014.9
20260905155454 83 152 4.0 5.0 0.00 0.00 0.00 58 1014.9
20260905154953 83 116 2.0 2.0 0.00 0.00 0.00 58 1014.5
20260905154448 82 89 2.0 2.0 0.00 0.00 0.00 61 1014.5
20260905153944 81 89 5.0 7.0 0.00 0.00 0.00 62 1014.3
20260905153440 81 144 5.0 6.0 0.00 0.00 0.00 63 1014.1
20260905152939 81 153 5.0 7.0 0.00 0.00 0.00 62 1014.4
20260905152434 80 73 2.0 2.0 0.00 0.00 0.00 64 1014.5
20260905151928 80 108 4.0 5.0 0.00 0.00 0.00 65 1014.2
20260905151419 80 111 3.0 5.0 0.00 0.00 0.00 65 1014.2
20260905150918 79 91 5.0 5.0 0.00 0.00 0.00 66 1014.1